Regional Weather Roundup
Issued by NWS State College, PA

Home | Current Version | Previous Version | Text Only | Print | Product List | Glossary On
Versions: 1 2 3 4 5 6 7 8 9 10 11 12 13 14 15 16 17 18 19 20 21 22 23 24 25 26 27 28 29 30 31 32 33 34 35 36 37 38 39 40 41 42 43 44 45 46 47 48 49 50
000
ASUS41 KCTP 191410
RWRCTP

REGIONAL WEATHER ROUNDUP
NATIONAL WEATHER SERVICE STATE COLLEGE PA
1000 AM EDT SUN APR 19 2015

Note: "fair" indicates few or no clouds below 12,000 feet with no
significant weather and/or obstructions to visibility.

* = STATION THAT DOES NOT REPORT PRECIPITATION /E.G. RAIN...SNOW...ETC/
    THUNDER OR FOG.

PAZ002>004-007>009-013>016-020>023-029>032-191500-
WESTERN PENNSYLVANIA

CITY           SKY/WX    TMP DP  RH WIND       PRES   REMARKS
ERIE           MOSUNNY   54  32  43 NE9       30.07F
MEADVILLE      MOSUNNY   56  25  30 E8G20     30.05F
FRANKLIN*      MOSUNNY   55  27  33 E17G23    30.09F
NEW CASTLE     FAIR      62  30  30 SE15G21   30.05F
BEAVER COUNTY  SUNNY     59  32  36 E7        30.03F
BUTLER*        MOSUNNY   61  30  31 E17       30.07F
PITTSBURGH INT PTSUNNY   60  32  34 E15       30.03F
PITTSBURGH     MOSUNNY   63  29  27 SE13G21   30.03F
INDIANA*       SUNNY     61  25  25 E18       30.12F
LATROBE        PTSUNNY   61  28  29 E7        30.06F
WASHINGTON CO* SUNNY     64  39  39 E16G22    30.04S
$$

PAZ004>006-010>012-017>019-024>028-033>037-041-042-045-046-049>053-191500-
CENTRAL PENNSYLVANIA

CITY           SKY/WX    TMP DP  RH WIND       PRES   REMARKS
BRADFORD       PTSUNNY   51  24  34 SE16G24   30.14F
DUBOIS         PTSUNNY   57  21  24 SE16G28   30.11F
CLEARFIELD     PTSUNNY   55  29  36 E10       30.16F
JOHNSTOWN      SUNNY     56  23  27 SE14G22   30.11F
ALTOONA        MOSUNNY   57  27  31 E9        30.16F
STATE COLLEGE  SUNNY     55  27  33 NE6       30.18S
WILLIAMSPORT   PTSUNNY   55  28  35 E5        30.20F
SELINSGROVE    PTSUNNY   57  31  37 NE3       30.20F
FT INDIANTOWN  PTSUNNY   57  28  32 E10G18    30.21R
CAPITAL CITY   PTSUNNY   59  29  31 E14       30.20S
HARRISBURG     CLOUDY    61  29  29 SE16      30.19S
YORK           PTSUNNY   59  29  31 E13G21    30.19S
$$

PAZ038>040-043-044-047-048-054-055-060>062-067>071-191500-
EASTERN PENNSYLVANIA

CITY           SKY/WX    TMP DP  RH WIND       PRES   REMARKS
SCRANTON       MOSUNNY   56  23  27 SE6       30.21F
MOUNT POCONO   MOSUNNY   50  25  37 E9G17     30.21S
ALLENTOWN      MOSUNNY   58  28  32 E10G18    30.23S
QUAKERTOWN*    PTSUNNY   55  30  38 E10       30.23F
READING        PTSUNNY   58  26  29 SE10      30.21R
LANCASTER      PTSUNNY   58  28  32 E14       30.20R
COATESVILLE    CLOUDY    57  36  44 SE13G18   30.22R
POTTSTOWN      PTSUNNY   57  32  38 E10       30.23S
BLUE BELL      PTSUNNY   59  36  41 E10       30.22S
DOYLESTOWN     PTSUNNY   56  33  42 CALM      30.22F
WILLOW GROVE   NOT AVBL
NORTH PHILA    PTSUNNY   59  34  39 E12       30.25R
PHILADELPHIA   CLOUDY    59  39  47 E9        30.23S
$$


USA.gov is the U.S. government's official web portal to all federal, state and local government web resources and services.